Location: Coupvray
(48.8929°N, 2.7967°E)
Time: 21:29:07
(UTC+00:00)

Cosmos 724 - Pass Details

Date: 27 October 2020
Orbit: 851 x 943 km, 65.6° (Epoch: 01 December)

Event Time Altitude Azimuth Distance (km) Brightness Sun altitude
Exits shadow 05:03:20 - 324° (NW) 3,026 6.7 -14.5°
Reaches altitude 10° 05:04:51 10° 333° (NNW) 2,610 6.5 -14.3°
Maximum altitude 05:09:22 21° 21° (NNE) 1,951 6.3 -13.5°
Drops below altitude 10° 05:13:57 10° 69° (ENE) 2,646 7.9 -12.8°
Sets 05:17:11 0° 85° (E) 3,598 9.4 -12.2°
